Location: Aucun
(42.9667°N, 0.1667°W)
Time: 18:57:52
(UTC+00:00)

Meteor 1-31 Rocket - Pass Details

Date: 17 February 2020
Orbit: 522 x 546 km, 97.6° (Epoch: 30 March)

Event Time Altitude Azimuth Distance (km) Brightness Sun altitude
Rises 05:39:19 0° 357° (N) 2,662 6.3 -14.7°
Reaches altitude 10° 05:41:50 10° 340° (NNW) 1,770 5.2 -14.2°
Enters shadow 05:44:00 19° 306° (NW) 1,297 4.2 -13.8°
